Bartlesville, OK

10:52 PM CDT on July 27, 2017 (GMT -0500)
Bartlesville Municipal

Weather History for KBVO - May, 2013

Change the Weather History Date:

Saturday, May 18, 2013

  Actual Average Record
Temperature  
Mean Temperature 72 °F -  
Max Temperature 87 °F 82 °F 96 °F (1987)
Min Temperature 61 °F 58 °F 40 °F (1976)
Cooling Degree Days 8    
Growing Degree Days 22 (Base 50)    
Moisture  
Dew Point 68 °F    
Average Humidity 88    
Maximum Humidity 100    
Minimum Humidity 67    
Precipitation  
Precipitation 0.00 in - - ()
Sea Level Pressure  
Sea Level Pressure 29.82 in    
Wind  
Wind Speed 3 mph (SSE)    
Max Wind Speed 17 mph    
Max Gust Speed 25 mph    
Visibility 4 miles    
Events      
Averages and records for this station are not official NWS values.
T = Trace of Precipitation, MM = Missing Value Source: NWS Daily Summary

Daily Weather History Graph

Daily Weather History Graph

Search for Another Location

Airport or City:

Trip Planner

Search our weather history database for the weather conditions in past years. The results will help you decide how hot, cold, wet, or windy it might be!

Date:

Astronomy

May. 18, 2013 Rise Set
Actual Time 6:14 AM CDT 8:27 PM CDT
Civil Twilight 5:44 AM CDT 8:56 PM CDT
Nautical Twilight 5:09 AM CDT 9:32 PM CDT
Astronomical Twilight 4:30 AM CDT 10:11 PM CDT
Moon 1:42 PM CDT (5/18) 1:56 AM CDT (5/18)
Length of Visible Light 15h 11m
Length of Day
14h 13m
First Quarter, 55% of the Moon is Illuminated
May 18
First Quarter
May 24
Full
May 31
Last Quarter
Jun 8
New
Jun 16
First Quarter

Hourly Weather History & Observations

Time (CDT) Temp. Heat Index Dew Point Humidity Pressure Visibility Wind Dir Wind Speed Gust Speed Precip Events Conditions
12:53 AM 62.1 °F - 62.1 °F 100% 29.86 in 3.0 mi Calm Calm - N/A   Clear
1:13 AM 62.6 °F - 62.6 °F 100% 29.87 in 1.8 mi Calm Calm - N/A   Clear
1:28 AM 62.6 °F - 62.6 °F 100% 29.87 in 2.0 mi Calm Calm - N/A   Clear
1:39 AM 62.6 °F - 62.6 °F 100% 29.87 in 4.0 mi Calm Calm - N/A   Clear
1:53 AM 61.0 °F - 61.0 °F 100% 29.84 in 3.0 mi Calm Calm - N/A   Clear
2:53 AM 62.1 °F - 62.1 °F 100% 29.84 in 3.0 mi Calm Calm - N/A   Clear
3:41 AM 64.4 °F - 64.4 °F 100% 29.88 in 2.5 mi Calm Calm - N/A   Overcast
3:48 AM 66.2 °F - 66.2 °F 100% 29.88 in 3.0 mi Calm Calm - N/A   Overcast
3:53 AM 66.9 °F - 66.0 °F 97% 29.86 in 3.0 mi Calm Calm - N/A   Overcast
4:11 AM 66.2 °F - 66.2 °F 100% 29.88 in 2.0 mi Calm Calm - N/A   Mostly Cloudy
4:28 AM 64.4 °F - 64.4 °F 100% 29.88 in 1.8 mi Calm Calm - N/A   Mostly Cloudy
4:38 AM 66.2 °F - 66.2 °F 100% 29.88 in 2.0 mi Calm Calm - N/A   Mostly Cloudy
4:51 AM 66.2 °F - 66.2 °F 100% 29.87 in 3.0 mi Calm Calm - N/A   Overcast
4:53 AM 66.9 °F - 66.9 °F 100% 29.84 in 4.0 mi Calm Calm - N/A   Overcast
5:53 AM 66.9 °F - 66.9 °F 100% 29.83 in 4.0 mi Calm Calm - N/A   Mostly Cloudy
6:53 AM 70.0 °F - 69.1 °F 97% 29.84 in 5.0 mi Calm Calm - N/A   Mostly Cloudy
7:00 AM 69.8 °F - 69.8 °F 100% 29.87 in 5.0 mi SE 3.5 mph - N/A   Overcast
7:53 AM 72.0 °F - 69.1 °F 91% 29.83 in 5.0 mi ESE 5.8 mph - N/A   Overcast
8:23 AM 73.4 °F - 69.8 °F 88% 29.85 in 5.0 mi SSE 6.9 mph - N/A   Overcast
8:53 AM 73.9 °F - 71.1 °F 91% 29.85 in 5.0 mi South 4.6 mph - N/A   Overcast
9:53 AM 73.9 °F - 71.1 °F 91% 29.85 in 4.0 mi South 9.2 mph - N/A   Overcast
10:53 AM 78.1 °F - 72.0 °F 81% 29.84 in 4.0 mi South 12.7 mph 17.3 mph N/A   Haze
11:53 AM 78.1 °F - 72.0 °F 81% 29.84 in 4.0 mi South 10.4 mph - N/A   Haze
12:53 PM 80.1 °F 83.8 °F 72.0 °F 76% 29.81 in 4.0 mi South 10.4 mph 16.1 mph N/A   Haze
1:24 PM 80.6 °F 84.6 °F 71.6 °F 74% 29.82 in 4.0 mi SSE 12.7 mph - N/A   Haze
2:53 PM 82.9 °F 88.8 °F 73.0 °F 72% 29.78 in 5.0 mi SSE 15.0 mph 20.7 mph N/A   Haze
3:53 PM 82.9 °F 88.0 °F 72.0 °F 69% 29.73 in 5.0 mi South 10.4 mph - N/A   Haze
4:53 PM 82.9 °F 88.8 °F 73.0 °F 72% 29.73 in 5.0 mi South 12.7 mph 23.0 mph N/A   Haze
5:53 PM 84.9 °F 92.1 °F 73.9 °F 69% 29.72 in 5.0 mi SSE 17.3 mph 25.3 mph N/A   Haze
6:53 PM 84.9 °F 91.4 °F 73.0 °F 67% 29.69 in 6.0 mi SSE 13.8 mph 19.6 mph N/A   Haze
7:53 PM 82.0 °F 86.7 °F 72.0 °F 71% 29.69 in 5.0 mi SSE 10.4 mph - N/A   Haze
8:53 PM 81.0 °F 84.4 °F 70.0 °F 69% 29.67 in 7.0 mi SSE 12.7 mph 21.9 mph N/A   Clear
9:53 PM 80.1 °F 83.2 °F 70.0 °F 71% 29.75 in 7.0 mi South 8.1 mph - N/A   Clear
10:53 PM 78.1 °F - 70.0 °F 76% 29.76 in 8.0 mi South 5.8 mph - N/A   Clear
11:53 PM 77.0 °F - 70.0 °F 79% 29.75 in 7.0 mi South 6.9 mph - N/A   Partly Cloudy